Regional Weather Roundup
Issued by NWS

Home | Current Version | Previous Version | Graphics & Text | Print | Product List | Glossary On
Versions: 1 2 3 4 5 6 7 8 9 10 11 12 13 14 15 16 17 18 19 20 21 22 23 24 25 26 27 28 29 30 31 32 33 34 35 36 37 38 39 40 41 42 43 44 45 46 47 48 49 50
000
ASUS43 KLOT 280903
RWRIL

ILLINOIS REGIONAL WEATHER ROUNDUP
NATIONAL WEATHER SERVICE CHICAGO/ROMEOVILLE IL
400 AM CDT TUE MAR 28 2017

NOTE: "FAIR" INDICATES FEW OR NO CLOUDS BELOW 12,000 FEET WITH NO
SIGNIFICANT WEATHER AND/OR OBSTRUCTIONS TO VISIBILITY.

* THESE STATIONS ARE NOT UNDER NWS QUALITY CONTROL. THEY ALSO MAY NOT
  REPORT WEATHER SUCH AS PRECIPITATION OR FOG.

ILZ001-002-007-009-015-016-024-281000-
NORTHWEST ILLINOIS

CITY           SKY/WX    TMP DP  RH WIND       PRES   REMARKS
MOLINE         CLOUDY    49  44  83 N3        30.01R
STERLING*      CLOUDY    47  44  90 NE5       30.01S FOG
SAVANNA*       CLOUDY    46  44  92 N3        30.01S
$$

ILZ003-004-008-010-011-017-018-281000-
NORTH CENTRAL ILLINOIS

CITY           SKY/WX    TMP DP  RH WIND       PRES   REMARKS
ROCKFORD       DRIZZLE   44  41  89 NE5       30.03R FOG
FREEPORT*      CLOUDY    44  43  98 E6        30.02S FOG
ROCHELLE*      CLOUDY    42  40  94 CALM      30.01S FOG
DE KALB*       CLOUDY    41  39  93 N8        30.01R FOG
$$

ILZ005-006-012>014-019>023-281000-
NORTHEAST ILLINOIS

CITY           SKY/WX    TMP DP  RH WIND       PRES   REMARKS
CHICAGO-OHARE  CLOUDY    42  35  76 N10       30.00R
CHICAGO-MIDWAY CLOUDY    41  35  79 N17G23    29.99S
AURORA         CLOUDY    43  38  82 N8        30.00R
LANSING*       MOCLDY    38  37  96 N8        29.99S WCI  32
JOLIET*        CLOUDY    43  38  83 N7        29.99S
WAUKEGAN       CLOUDY    39  36  89 N7        30.01R WCI  34
DUPAGE AIRPORT CLOUDY    41  39  93 N8        29.99S
WHEELING       CLOUDY    40  36  86 NE9       30.02R
MORRIS*        CLOUDY    42  39  86 CALM      29.99R
NORTHERLY ISL    N/A     39  35  86 NW10        N/A  WCI  32
$$

LMZ740>746-281000-
SOUTHERN LAKE MICHIGAN

STATION/POSITION SKY/WX   TEMP    WIND        PRES    VSBY  WAVE
                          AIR SEA DIR/SP/G                  HT/PER
                          (F)     (DEG/KT/KT) (MB)    (MI)  (FT/S)
HARRISON CRIB              38     350/ 15/ 17   N/A
BURNHAM HARBOR             38     360/  8/ 16   N/A
CALUMET HARBOR             38     330/ 13/ 17 1015.1R
BURNS HARBOR               38     360/ 12/ 14 1016.3R
MICHIGAN CITY              38     350/ 15/ 16   N/A
$$

ILZ025>027-034>036-040-047-049-050-058-095>099-281000-
WEST-CENTRAL ILLINOIS

CITY           SKY/WX    TMP DP  RH WIND       PRES   REMARKS
QUINCY         CLOUDY    50  47  89 N6        29.99R FOG
GALESBURG*     CLOUDY    47  46  95 N7        30.00R
MACOMB*        CLOUDY    48  48  98 NW5       30.02S FOG
JACKSONVILLE*  CLOUDY    49  48  96 CALM      29.98S FOG
PITTSFIELD*    CLOUDY    51  49  93 N5        30.00S
$$

ILZ028>032-037-038-041>044-048-051>054-059>061-281000-
CENTRAL ILLINOIS

CITY           SKY/WX    TMP DP  RH WIND       PRES   REMARKS
PONTIAC        PTCLDY    43  42  96 N7        30.00R
BLOOMINGTON    CLOUDY    44  42  93 NE8       29.98S
DECATUR        CLOUDY    48  46  93 N8        29.97S FOG
PEORIA         CLOUDY    48  47  96 NE8       29.99R FOG
SPRINGFIELD    CLOUDY    52  50  93 N8        29.98S FOG
TAYLORVILLE    NOT AVBL
$$

ILZ033-039-045-046-055>057-062-063-281000-
EAST-CENTRAL ILLINOIS

CITY           SKY/WX    TMP DP  RH WIND       PRES   REMARKS
CHAMPAIGN      CLOUDY    45  40  82 N13       29.97R
RANTOUL*       CLOUDY    45  42  87 N9        29.96S
MATTOON        FOG       47  47 100 N13       29.94S VSB 3/4
PARIS*         CLOUDY    47  47  97 N10       29.94R FOG
$$

ILZ079-100>102-281000-
SOUTHWEST ILLINOIS

CITY           SKY/WX    TMP DP  RH WIND       PRES   REMARKS
BELLEVILLE     CLOUDY    54  53  99 N13       29.95F
CAHOKIA*       CLOUDY    54  50  86 N10       29.96F
SPARTA*        CLOUDY    53  51  92 NW7       29.97S
$$

ILZ064>066-069>071-074>076-080>082-084>086-088>090-092>094-281000-
SOUTH-CENTRAL ILLINOIS

CITY           SKY/WX    TMP DP  RH WIND       PRES   REMARKS
CARBONDALE     CLOUDY    55  53  93 N9        29.94S
CAIRO*         CLOUDY    55  53  93 N3        29.92S
EFFINGHAM*     CLOUDY    51  51 100 NW12G18   29.97R FOG
MARION         CLOUDY    57  55  94 NW7       29.95R
MT. VERNON     CLOUDY    54  51  90 VRB5      29.94R
CENTRALIA*     CLOUDY    53  51  93 N13       29.95R
SALEM*         CLOUDY    54  51  89 N12       29.94F
$$

ILZ067-068-072-073-078-083-087-091-281000-
SOUTHEAST ILLINOIS

CITY           SKY/WX    TMP DP  RH WIND       PRES   REMARKS
LAWRENCEVILLE  CLOUDY    56  54  93 N14       29.89R
FLORA*         CLOUDY    55  52  89 NW9G16    29.94R
FAIRFIELD*     CLOUDY    55  53  91 NW8       29.91S
HARRISBURG*    CLOUDY    56  54  92 NW9       29.93R
ROBINSON*      CLOUDY    54  52  95 N9        29.91R
CARMI*         CLOUDY    55  55 100 NW9       29.90R FOG
$$

ABBREVIATIONS USED IN REMARKS
   TC - TEMPERATURE IN CELSIUS
  WCI - WIND CHILL INDEX
   HX - HEAT INDEX
  VSB - VISIBILITY
$$





USA.gov is the U.S. government's official web portal to all federal, state and local government web resources and services.